Location: Newark
(47.5833°N, 8.1500°E)
Time: 07:41:28
(UTC+00:00)

Vanguard 1 - Pass Details

Date: 27 October 2020
Orbit: 650 x 3833 km, 34.2° (Epoch: 29 November)

Event Time Altitude Azimuth Distance (km) Brightness Sun altitude
Rises 16:04:26 0° 267° (W) 7,973 16.4 1.2°
Reaches altitude 10° 16:10:21 10° 263° (W) 6,850 16.2 0.3°
Maximum altitude 16:30:20 48° 199° (SSW) 3,529 13.2 -2.9°
Drops below altitude 10° 16:42:54 10° 130° (SE) 4,455 13.1 -5.0°
Sets 16:45:50 0° 124° (SE) 5,102 13.3 -5.4°
